Terminal Aerodrome Forecast
Issued by NWS Charleston, WV

Current Version | Previous Version | Graphics & Text | Print | Product List | Glossary On
Versions: 1 2 3 4 5 6 7 8 9 10 11 12 13 14 15 16 17 18 19 20 21 22 23 24
000
FTUS41 KRLX 220858 AAA
TAFBKW
TAF AMD
KBKW 220858Z 2209/2306 23007KT P6SM SCT250
     FM222200 21005KT P6SM SHRA OVC070
     FM230000 20006KT 5SM SHRA OVC050
     FM230300 18007KT 3SM SHRA OVC015=

USA.gov is the U.S. government's official web portal to all federal, state and local government web resources and services.